Data No,UTC Date,UTC Time,Latitude,Longitude,Course(deg),Temp(degC),Sal(psu)
749,2023/10/18,12:28,35-35.84N,139-47.25E,215,21.782,28.5563
750,2023/10/18,12:29,35-35.66N,139-47.13E,199,21.786,29.1449
751,2023/10/18,12:30,35-35.45N,139-47.14E,166,21.709,29.29
752,2023/10/18,12:31,35-35.29N,139-47.28E,140,21.711,28.9267
753,2023/10/18,12:32,35-35.12N,139-47.47E,138,21.728,27.7705
754,2023/10/18,12:33,35-34.93N,139-47.70E,131,21.733,27.963
755,2023/10/18,12:34,35-34.77N,139-47.95E,130,21.716,28.7873
756,2023/10/18,12:35,35-34.58N,139-48.21E,130,21.649,29.1685
757,2023/10/18,12:36,35-34.40N,139-48.48E,130,21.606,29.4359
758,2023/10/18,12:37,35-34.21N,139-48.75E,130,21.582,29.4728
759,2023/10/18,12:38,35-34.02N,139-49.03E,130,21.557,29.5535
760,2023/10/18,12:39,35-33.83N,139-49.31E,130,21.482,29.57
761,2023/10/18,12:40,35-33.63N,139-49.59E,130,21.41,29.5215
762,2023/10/18,12:41,35-33.43N,139-49.88E,130,21.401,29.3649
763,2023/10/18,12:42,35-33.23N,139-50.15E,130,21.386,29.0368
764,2023/10/18,12:43,35-33.02N,139-50.45E,132,21.397,28.8317
765,2023/10/18,12:44,35-32.73N,139-50.66E,156,21.527,28.9602
766,2023/10/18,12:45,35-32.43N,139-50.72E,170,21.495,28.9896
767,2023/10/18,12:46,35-32.17N,139-50.78E,169,21.423,28.4991
768,2023/10/18,12:47,35-31.87N,139-50.84E,169,21.382,29.0819
769,2023/10/18,12:48,35-31.57N,139-50.91E,170,21.376,29.9607
770,2023/10/18,12:49,35-31.25N,139-50.95E,178,21.362,30.3902
771,2023/10/18,12:50,35-30.95N,139-50.94E,180,21.282,30.7191
772,2023/10/18,12:51,35-30.63N,139-50.94E,180,21.242,30.8936
773,2023/10/18,12:52,35-30.33N,139-50.93E,180,21.238,30.9573
774,2023/10/18,12:53,35-30.01N,139-50.93E,179,21.253,31.0119
775,2023/10/18,12:54,35-29.66N,139-50.93E,181,21.302,31.0521
776,2023/10/18,12:55,35-29.36N,139-50.81E,202,21.264,31.0937
777,2023/10/18,12:56,35-29.11N,139-50.59E,214,21.285,31.1136
778,2023/10/18,12:57,35-28.87N,139-50.36E,219,21.296,31.1074
779,2023/10/18,12:58,35-28.67N,139-50.12E,227,21.308,31.1123
780,2023/10/18,12:59,35-28.47N,139-49.79E,233,21.252,31.1245
781,2023/10/18,13:00,35-28.26N,139-49.47E,233,21.259,31.1623
782,2023/10/18,13:01,35-28.10N,139-49.20E,232,21.324,31.1846
783,2023/10/18,13:02,35-27.91N,139-48.89E,233,21.421,31.1719
784,2023/10/18,13:03,35-27.72N,139-48.58E,232,21.413,31.1695
785,2023/10/18,13:04,35-27.50N,139-48.23E,233,21.409,31.1768
786,2023/10/18,13:05,35-27.31N,139-47.93E,233,21.338,31.1316
787,2023/10/18,13:06,35-27.12N,139-47.61E,232,21.289,31.0245
788,2023/10/18,13:07,35-26.95N,139-47.35E,232,21.353,30.8692
789,2023/10/18,13:08,35-26.76N,139-47.05E,232,21.458,30.6115
790,2023/10/18,13:09,35-26.57N,139-46.73E,232,21.485,30.4337
791,2023/10/18,13:10,35-26.39N,139-46.43E,233,21.472,30.3681
792,2023/10/18,13:11,35-26.20N,139-46.12E,233,21.464,30.4209
793,2023/10/18,13:12,35-26.01N,139-45.81E,233,21.427,30.4637
794,2023/10/18,13:13,35-25.82N,139-45.50E,232,21.406,30.5321
795,2023/10/18,13:14,35-25.60N,139-45.14E,233,21.385,30.596
796,2023/10/18,13:15,35-25.41N,139-44.83E,233,21.342,30.6735
797,2023/10/18,13:16,35-25.22N,139-44.53E,233,21.313,30.7437
798,2023/10/18,13:17,35-25.04N,139-44.21E,235,21.324,30.8156
799,2023/10/18,13:18,35-24.86N,139-43.89E,235,21.33,30.8414
800,2023/10/18,13:19,35-24.67N,139-43.57E,235,21.346,30.9299
801,2023/10/18,13:20,35-24.49N,139-43.26E,233,21.342,30.9599
802,2023/10/18,13:21,35-24.24N,139-43.04E,210,21.34,31.0007
803,2023/10/18,13:22,35-23.96N,139-42.89E,204,21.335,31.0437
804,2023/10/18,13:23,35-23.71N,139-42.75E,205,21.329,31.0779
805,2023/10/18,13:24,35-23.43N,139-42.58E,205,21.326,31.0886
806,2023/10/18,13:25,35-23.15N,139-42.42E,204,21.341,31.1049
807,2023/10/18,13:26,35-22.84N,139-42.35E,182,21.331,31.1124
808,2023/10/18,13:27,35-22.54N,139-42.36E,177,21.304,31.1052
809,2023/10/18,13:28,35-22.23N,139-42.38E,176,21.298,31.0984
810,2023/10/18,13:29,35-21.91N,139-42.41E,176,21.298,31.1129
811,2023/10/18,13:30,35-21.60N,139-42.43E,177,21.289,31.0997
812,2023/10/18,13:31,35-21.28N,139-42.45E,176,21.303,31.0999
813,2023/10/18,13:32,35-20.97N,139-42.47E,176,21.28,31.1059
814,2023/10/18,13:33,35-20.66N,139-42.49E,177,21.273,31.1212
815,2023/10/18,13:34,35-20.38N,139-42.51E,177,21.28,31.0915
816,2023/10/18,13:35,35-20.14N,139-42.52E,177,21.267,31.1091
817,2023/10/18,13:36,35-19.90N,139-42.54E,174,21.275,31.1589
818,2023/10/18,13:37,35-19.72N,139-42.63E,151,21.261,31.172
819,2023/10/18,13:38,35-19.54N,139-42.77E,147,21.268,31.2052
820,2023/10/18,13:39,35-19.35N,139-42.91E,147,21.214,31.2573
821,2023/10/18,13:40,35-19.17N,139-43.05E,147,21.236,31.2608
822,2023/10/18,13:41,35-18.98N,139-43.19E,147,21.251,31.249
823,2023/10/18,13:42,35-18.79N,139-43.34E,147,21.258,31.2618
824,2023/10/18,13:43,35-18.61N,139-43.48E,147,21.255,31.2907
825,2023/10/18,13:44,35-18.42N,139-43.63E,147,21.259,31.295
826,2023/10/18,13:45,35-18.23N,139-43.78E,145,21.279,31.29
827,2023/10/18,13:46,35-18.05N,139-43.95E,143,21.281,31.3061
828,2023/10/18,13:47,35-17.87N,139-44.10E,143,21.282,31.342
829,2023/10/18,13:48,35-17.68N,139-44.28E,143,21.279,31.3945
830,2023/10/18,13:49,35-17.50N,139-44.44E,143,21.28,31.4632
831,2023/10/18,13:50,35-17.32N,139-44.61E,142,21.254,31.4993
832,2023/10/18,13:51,35-17.14N,139-44.78E,142,21.231,31.5781
833,2023/10/18,13:52,35-16.96N,139-44.93E,144,21.267,31.6989
834,2023/10/18,13:53,35-16.79N,139-45.10E,140,21.282,31.7476
835,2023/10/18,13:54,35-16.61N,139-45.28E,141,21.24,31.7209
836,2023/10/18,13:55,35-16.44N,139-45.44E,143,21.227,31.8558
837,2023/10/18,13:56,35-16.26N,139-45.60E,141,21.206,31.898
838,2023/10/18,13:57,35-16.09N,139-45.78E,140,21.144,31.917
839,2023/10/18,13:58,35-15.91N,139-45.94E,144,21.095,31.87
840,2023/10/18,13:59,35-15.72N,139-46.10E,145,21.108,31.8246
841,2023/10/18,14:00,35-15.52N,139-46.23E,160,21.111,31.81
842,2023/10/18,14:01,35-15.30N,139-46.27E,175,21.085,31.8342
843,2023/10/18,14:02,35-15.07N,139-46.28E,178,21.132,31.833
844,2023/10/18,14:03,35-14.85N,139-46.29E,178,21.15,31.8518
845,2023/10/18,14:04,35-14.62N,139-46.30E,177,21.149,31.991
846,2023/10/18,14:05,35-14.39N,139-46.31E,178,21.148,32.0319
847,2023/10/18,14:06,35-14.17N,139-46.31E,179,21.149,31.9698
848,2023/10/18,14:07,35-13.94N,139-46.32E,179,21.17,31.9099
849,2023/10/18,14:08,35-13.71N,139-46.32E,180,21.193,32.0268
850,2023/10/18,14:09,35-13.48N,139-46.32E,180,21.188,32.1154
851,2023/10/18,14:10,35-13.26N,139-46.32E,180,21.188,32.1656
852,2023/10/18,14:11,35-13.03N,139-46.31E,180,21.175,32.2273
853,2023/10/18,14:12,35-12.80N,139-46.29E,190,21.147,32.1941
854,2023/10/18,14:13,35-12.57N,139-46.21E,196,21.137,32.1384
855,2023/10/18,14:14,35-12.31N,139-46.13E,195,21.162,31.9759
856,2023/10/18,14:15,35-12.04N,139-46.04E,195,21.138,31.9935
857,2023/10/18,14:16,35-11.76N,139-45.94E,195,21.146,31.9951
858,2023/10/18,14:17,35-11.46N,139-45.84E,195,21.174,32.0056
859,2023/10/18,14:18,35-11.17N,139-45.74E,195,21.195,32.0546
860,2023/10/18,14:19,35-10.87N,139-45.63E,197,21.194,32.1528
861,2023/10/18,14:20,35-10.59N,139-45.53E,196,21.112,32.2439
862,2023/10/18,14:21,35-10.30N,139-45.42E,196,21.048,32.3558
863,2023/10/18,14:22,35-10.01N,139-45.32E,196,21.047,32.4321
864,2023/10/18,14:23,35-09.73N,139-45.22E,196,21.128,32.4585
865,2023/10/18,14:24,35-09.45N,139-45.12E,196,21.168,32.526
866,2023/10/18,14:25,35-09.16N,139-45.02E,195,21.288,32.5249
867,2023/10/18,14:26,35-08.88N,139-44.92E,196,21.422,32.5833
868,2023/10/18,14:27,35-08.58N,139-44.82E,196,21.546,32.6343
869,2023/10/18,14:28,35-08.30N,139-44.72E,196,21.749,32.6905
870,2023/10/18,14:29,35-08.01N,139-44.63E,191,21.746,32.8038
871,2023/10/18,14:30,35-07.71N,139-44.55E,191,21.81,32.8517
872,2023/10/18,14:31,35-07.43N,139-44.49E,191,21.819,32.9096
873,2023/10/18,14:32,35-07.13N,139-44.41E,192,21.889,32.9518
874,2023/10/18,14:33,35-06.85N,139-44.34E,192,21.885,33.0174
875,2023/10/18,14:34,35-06.55N,139-44.26E,191,22.158,33.0766
876,2023/10/18,14:35,35-06.25N,139-44.18E,192,22.503,33.1206
877,2023/10/18,14:36,35-05.97N,139-44.13E,189,22.726,33.234
878,2023/10/18,14:37,35-05.67N,139-44.07E,189,23.081,33.3671
879,2023/10/18,14:38,35-05.39N,139-44.01E,189,23.31,33.5016
880,2023/10/18,14:39,35-05.09N,139-43.95E,189,23.438,33.6375
881,2023/10/18,14:40,35-04.80N,139-43.90E,189,23.444,33.679
882,2023/10/18,14:41,35-04.51N,139-43.84E,188,23.4,33.705
883,2023/10/18,14:42,35-04.22N,139-43.79E,188,23.387,33.7044
884,2023/10/18,14:43,35-03.94N,139-43.74E,188,23.417,33.6821
885,2023/10/18,14:44,35-03.65N,139-43.69E,188,23.485,33.663
886,2023/10/18,14:45,35-03.37N,139-43.64E,187,23.73,33.6437
887,2023/10/18,14:46,35-03.09N,139-43.59E,187,23.979,33.6553
888,2023/10/18,14:47,35-02.80N,139-43.55E,187,24.088,33.7018
889,2023/10/18,14:48,35-02.52N,139-43.50E,187,24.074,33.7497
890,2023/10/18,14:49,35-02.23N,139-43.46E,186,24.121,33.7647
891,2023/10/18,14:50,35-01.95N,139-43.42E,187,24.082,33.7719
892,2023/10/18,14:51,35-01.66N,139-43.37E,187,24.218,33.7785
893,2023/10/18,14:52,35-01.37N,139-43.33E,187,24.297,33.7844
894,2023/10/18,14:53,35-01.09N,139-43.28E,187,24.3,33.7901
895,2023/10/18,14:54,35-00.81N,139-43.24E,187,24.148,33.7961
896,2023/10/18,14:55,35-00.53N,139-43.21E,185,23.977,33.7982
897,2023/10/18,14:56,35-00.25N,139-43.17E,186,24.004,33.7638
898,2023/10/18,14:57,34-59.97N,139-43.14E,186,24.02,33.7881
899,2023/10/18,14:58,34-59.68N,139-43.12E,180,23.959,33.7921
900,2023/10/18,14:59,34-59.41N,139-43.12E,180,23.809,33.798
901,2023/10/18,15:00,34-59.10N,139-43.11E,181,23.795,33.8192
902,2023/10/18,15:01,34-58.82N,139-43.12E,177,24.287,33.8173
903,2023/10/18,15:02,34-58.51N,139-43.18E,165,24.875,33.8084
904,2023/10/18,15:03,34-58.22N,139-43.31E,159,25.049,33.7932
905,2023/10/18,15:04,34-57.94N,139-43.48E,151,25.079,33.7755
906,2023/10/18,15:05,34-57.65N,139-43.69E,148,25.107,33.7663
907,2023/10/18,15:06,34-57.38N,139-43.90E,148,25.11,33.7683
908,2023/10/18,15:07,34-57.09N,139-44.12E,148,25.183,33.7696
909,2023/10/18,15:08,34-56.80N,139-44.33E,150,25.256,33.7635
910,2023/10/18,15:09,34-56.51N,139-44.53E,150,25.267,33.7627
911,2023/10/18,15:10,34-56.22N,139-44.73E,150,25.257,33.7603
912,2023/10/18,15:11,34-55.93N,139-44.93E,150,25.22,33.7565
913,2023/10/18,15:12,34-55.63N,139-45.14E,150,25.13,33.7516
914,2023/10/18,15:13,34-55.34N,139-45.33E,150,25.143,33.7392
915,2023/10/18,15:14,34-55.04N,139-45.54E,150,25.176,33.7396
916,2023/10/18,15:15,34-54.73N,139-45.74E,151,25.171,33.7329
917,2023/10/18,15:16,34-54.44N,139-45.93E,152,25.109,33.7299
918,2023/10/18,15:17,34-54.14N,139-46.12E,152,25.05,33.7355
919,2023/10/18,15:18,34-53.79N,139-46.35E,152,24.995,33.7361
920,2023/10/18,15:19,34-53.50N,139-46.54E,151,25.094,33.737
921,2023/10/18,15:20,34-53.19N,139-46.74E,150,25.019,33.7445
922,2023/10/18,15:21,34-52.93N,139-46.92E,150,24.982,33.7437
923,2023/10/18,15:22,34-52.63N,139-47.15E,147,24.855,33.7427
924,2023/10/18,15:23,34-52.35N,139-47.38E,146,24.951,33.7402
925,2023/10/18,15:24,34-52.04N,139-47.61E,147,24.967,33.7426
926,2023/10/18,15:25,34-51.74N,139-47.84E,147,24.873,33.7423
927,2023/10/18,15:26,34-51.45N,139-48.07E,147,24.814,33.7407
928,2023/10/18,15:27,34-51.15N,139-48.30E,147,24.728,33.742
929,2023/10/18,15:28,34-50.85N,139-48.52E,148,24.643,33.7426
930,2023/10/18,15:29,34-50.54N,139-48.81E,141,24.513,33.7401
931,2023/10/18,15:30,34-50.28N,139-49.10E,136,24.364,33.7377
932,2023/10/18,15:31,34-50.09N,139-49.34E,132,24.353,33.7371
933,2023/10/18,15:32,34-49.84N,139-49.69E,129,24.351,33.7308
934,2023/10/18,15:33,34-49.68N,139-50.03E,116,24.355,33.723
935,2023/10/18,15:34,34-49.61N,139-50.39E,100,24.315,33.7182
936,2023/10/18,15:35,34-49.59N,139-50.72E,90,24.198,33.7195
937,2023/10/18,15:36,34-49.59N,139-51.10E,90,23.896,33.7237
938,2023/10/18,15:37,34-49.58N,139-51.47E,93,23.799,33.7093
939,2023/10/18,15:38,34-49.56N,139-51.83E,94,23.74,33.693
940,2023/10/18,15:39,34-49.55N,139-52.20E,91,23.59,33.6864
941,2023/10/18,15:40,34-49.56N,139-52.57E,85,23.434,33.6786
942,2023/10/18,15:41,34-49.61N,139-52.93E,75,23.383,33.6978
943,2023/10/18,15:42,34-49.70N,139-53.25E,68,23.2,33.7318
944,2023/10/18,15:43,34-49.82N,139-53.57E,66,23.128,33.7443
945,2023/10/18,15:44,34-49.94N,139-53.90E,65,23.132,33.737
946,2023/10/18,15:45,34-50.06N,139-54.23E,66,23.175,33.7248
947,2023/10/18,15:46,34-50.18N,139-54.59E,66,23.211,33.7174
948,2023/10/18,15:47,34-50.30N,139-54.93E,66,23.259,33.7068
949,2023/10/18,15:48,34-50.41N,139-55.23E,66,23.239,33.7112
950,2023/10/18,15:49,34-50.52N,139-55.55E,67,23.204,33.7154
951,2023/10/18,15:50,34-50.63N,139-55.88E,67,23.192,33.714
952,2023/10/18,15:51,34-50.74N,139-56.20E,67,23.195,33.7076
953,2023/10/18,15:52,34-50.84N,139-56.50E,67,23.195,33.7057
954,2023/10/18,15:53,34-50.95N,139-56.81E,67,23.171,33.7101
955,2023/10/18,15:54,34-51.06N,139-57.12E,67,23.147,33.715
956,2023/10/18,15:55,34-51.15N,139-57.40E,67,23.048,33.7224
957,2023/10/18,15:56,34-51.26N,139-57.71E,65,22.887,33.7359
958,2023/10/18,15:57,34-51.39N,139-58.02E,63,22.82,33.7534
959,2023/10/18,15:58,34-51.51N,139-58.34E,65,23.264,33.7905
960,2023/10/18,15:59,34-51.64N,139-58.67E,62,23.375,33.7537
961,2023/10/18,16:00,34-51.79N,139-59.00E,62,23.397,33.7277
962,2023/10/18,16:01,34-51.92N,139-59.32E,62,23.41,33.7248
963,2023/10/18,16:02,34-52.07N,139-59.64E,62,23.42,33.726
964,2023/10/18,16:03,34-52.21N,139-59.97E,62,23.445,33.7282
965,2023/10/18,16:04,34-52.35N,140-00.29E,62,23.469,33.7308
966,2023/10/18,16:05,34-52.49N,140-00.61E,62,23.463,33.7293
967,2023/10/18,16:06,34-52.62N,140-00.92E,61,23.423,33.7202
968,2023/10/18,16:07,34-52.76N,140-01.24E,61,23.424,33.7066
969,2023/10/18,16:08,34-52.91N,140-01.57E,61,23.434,33.6908
970,2023/10/18,16:09,34-53.05N,140-01.88E,61,23.429,33.6783
971,2023/10/18,16:10,34-53.20N,140-02.20E,61,23.417,33.677
972,2023/10/18,16:11,34-53.34N,140-02.52E,60,23.371,33.6844
973,2023/10/18,16:12,34-53.50N,140-02.86E,60,23.542,33.7058
974,2023/10/18,16:13,34-53.66N,140-03.20E,61,23.773,33.7237
975,2023/10/18,16:14,34-53.78N,140-03.47E,61,23.903,33.761
976,2023/10/18,16:15,34-53.93N,140-03.80E,61,23.976,33.7844
977,2023/10/18,16:16,34-54.08N,140-04.12E,61,24.021,33.8035
978,2023/10/18,16:17,34-54.21N,140-04.43E,60,24.022,33.8188
979,2023/10/18,16:18,34-54.37N,140-04.76E,60,24.021,33.8193
980,2023/10/18,16:19,34-54.52N,140-05.07E,59,24.084,33.8135
981,2023/10/18,16:20,34-54.67N,140-05.39E,59,24.256,33.8045
982,2023/10/18,16:21,34-54.82N,140-05.71E,59,24.445,33.7945
983,2023/10/18,16:22,34-54.97N,140-06.02E,60,24.551,33.7973
984,2023/10/18,16:23,34-55.13N,140-06.35E,60,24.652,33.8044
985,2023/10/18,16:24,34-55.28N,140-06.67E,60,24.728,33.8099
986,2023/10/18,16:25,34-55.43N,140-06.99E,60,24.825,33.815
987,2023/10/18,16:26,34-55.57N,140-07.31E,60,24.863,33.8237
988,2023/10/18,16:27,34-55.72N,140-07.63E,60,24.868,33.8305
989,2023/10/18,16:28,34-55.88N,140-07.95E,60,24.935,33.8416
990,2023/10/18,16:29,34-56.03N,140-08.27E,60,25.063,33.8506
991,2023/10/18,16:30,34-56.20N,140-08.65E,61,25.209,33.8557
992,2023/10/18,16:31,34-56.34N,140-08.95E,61,25.316,33.8594
993,2023/10/18,16:32,34-56.49N,140-09.29E,61,25.321,33.8634
994,2023/10/18,16:33,34-56.63N,140-09.59E,60,25.338,33.8706
995,2023/10/18,16:34,34-56.76N,140-09.89E,61,25.348,33.8796
996,2023/10/18,16:35,34-56.90N,140-10.21E,61,25.351,33.8812
997,2023/10/18,16:36,34-57.05N,140-10.53E,61,25.364,33.8835
998,2023/10/18,16:37,34-57.19N,140-10.86E,62,25.375,33.89
999,2023/10/18,16:38,34-57.34N,140-11.19E,62,25.426,33.8938
1000,2023/10/18,16:39,34-57.48N,140-11.50E,62,25.419,33.8958
1001,2023/10/18,16:40,34-57.62N,140-11.83E,62,25.441,33.8984
1002,2023/10/18,16:41,34-57.78N,140-12.20E,62,25.452,33.8967
1003,2023/10/18,16:42,34-57.92N,140-12.53E,62,25.447,33.8947
1004,2023/10/18,16:43,34-58.07N,140-12.88E,62,25.451,33.8928
1005,2023/10/18,16:44,34-58.21N,140-13.21E,62,25.351,33.8925
1006,2023/10/18,16:45,34-58.35N,140-13.55E,62,25.006,33.8876
1007,2023/10/18,16:46,34-58.49N,140-13.85E,60,24.578,33.8724
1008,2023/10/18,16:47,34-58.64N,140-14.18E,60,24.525,33.8229
1009,2023/10/18,16:48,34-58.80N,140-14.51E,60,24.499,33.7995
1010,2023/10/18,16:49,34-58.95N,140-14.82E,60,24.473,33.7735
1011,2023/10/18,16:50,34-59.10N,140-15.16E,61,24.356,33.7559
1012,2023/10/18,16:51,34-59.24N,140-15.49E,61,24.35,33.7356
1013,2023/10/18,16:52,34-59.39N,140-15.82E,61,24.311,33.7159
1014,2023/10/18,16:53,34-59.55N,140-16.16E,59,23.748,33.7059
1015,2023/10/18,16:54,34-59.70N,140-16.46E,60,23.304,33.6703
1016,2023/10/18,16:55,34-59.85N,140-16.80E,61,23.291,33.517
1017,2023/10/18,16:56,35-00.00N,140-17.12E,61,23.28,33.4526
1018,2023/10/18,16:57,35-00.15N,140-17.45E,61,23.218,33.4284
1019,2023/10/18,16:58,35-00.30N,140-17.78E,60,23.14,33.3979
1020,2023/10/18,16:59,35-00.45N,140-18.11E,61,23.08,33.3664
1021,2023/10/18,17:00,35-00.60N,140-18.44E,61,23.107,33.338
1022,2023/10/18,17:01,35-00.74N,140-18.76E,61,23.179,33.3203
1023,2023/10/18,17:02,35-00.89N,140-19.09E,60,23.16,33.3407
1024,2023/10/18,17:03,35-01.05N,140-19.42E,59,23.178,33.3446
1025,2023/10/18,17:04,35-01.21N,140-19.76E,60,23.189,33.3549
1026,2023/10/18,17:05,35-01.36N,140-20.10E,60,23.212,33.3646
1027,2023/10/18,17:06,35-01.51N,140-20.41E,60,23.246,33.3733
1028,2023/10/18,17:07,35-01.66N,140-20.74E,61,23.293,33.3896
1029,2023/10/18,17:08,35-01.82N,140-21.07E,60,23.309,33.4107
1030,2023/10/18,17:09,35-01.96N,140-21.39E,61,23.237,33.4306
1031,2023/10/18,17:10,35-02.11N,140-21.73E,61,23.193,33.4366
1032,2023/10/18,17:11,35-02.24N,140-22.01E,61,23.183,33.4263
1033,2023/10/18,17:12,35-02.41N,140-22.38E,61,23.186,33.4197
1034,2023/10/18,17:13,35-02.55N,140-22.67E,60,23.364,33.4276
1035,2023/10/18,17:14,35-02.69N,140-22.99E,61,23.431,33.4842
1036,2023/10/18,17:15,35-02.84N,140-23.32E,61,23.453,33.5387
1037,2023/10/18,17:16,35-02.98N,140-23.65E,61,23.449,33.578
1038,2023/10/18,17:17,35-03.13N,140-23.97E,61,23.459,33.5896
1039,2023/10/18,17:18,35-03.28N,140-24.31E,61,23.443,33.5885
1040,2023/10/18,17:19,35-03.43N,140-24.64E,61,23.433,33.5848
1041,2023/10/18,17:20,35-03.57N,140-24.96E,62,23.41,33.5825
1042,2023/10/18,17:21,35-03.72N,140-25.29E,61,23.388,33.5784
1043,2023/10/18,17:22,35-03.87N,140-25.62E,59,23.382,33.575
1044,2023/10/18,17:23,35-04.03N,140-25.94E,59,23.365,33.5771
1045,2023/10/18,17:24,35-04.17N,140-26.25E,59,23.342,33.5795
1046,2023/10/18,17:25,35-04.34N,140-26.57E,55,23.421,33.5792
1047,2023/10/18,17:26,35-04.51N,140-26.86E,55,23.501,33.6025
1048,2023/10/18,17:27,35-04.67N,140-27.16E,56,23.511,33.6681
1049,2023/10/18,17:28,35-04.84N,140-27.46E,56,23.495,33.7207
1050,2023/10/18,17:29,35-05.00N,140-27.76E,56,23.479,33.7294
1051,2023/10/18,17:30,35-05.17N,140-28.06E,56,23.481,33.7364
1052,2023/10/18,17:31,35-05.33N,140-28.35E,56,23.514,33.7477
1053,2023/10/18,17:32,35-05.49N,140-28.65E,56,23.519,33.7626
1054,2023/10/18,17:33,35-05.66N,140-28.95E,56,23.528,33.7748
1055,2023/10/18,17:34,35-05.82N,140-29.24E,56,23.515,33.7825
1056,2023/10/18,17:35,35-05.99N,140-29.52E,51,23.522,33.7937
1057,2023/10/18,17:36,35-06.19N,140-29.77E,42,23.537,33.8047
1058,2023/10/18,17:37,35-06.40N,140-30.02E,47,23.542,33.8115
1059,2023/10/18,17:38,35-06.58N,140-30.30E,54,23.542,33.8188
1060,2023/10/18,17:39,35-06.75N,140-30.59E,55,23.55,33.8174
1061,2023/10/18,17:40,35-06.90N,140-30.90E,58,23.544,33.8199
1062,2023/10/18,17:41,35-07.05N,140-31.20E,58,23.542,33.8202
1063,2023/10/18,17:42,35-07.20N,140-31.50E,58,23.54,33.8198
1064,2023/10/18,17:43,35-07.36N,140-31.81E,58,23.535,33.8194
1065,2023/10/18,17:44,35-07.51N,140-32.11E,58,23.535,33.8203
1066,2023/10/18,17:45,35-07.66N,140-32.40E,58,23.536,33.8233
1067,2023/10/18,17:46,35-07.81N,140-32.71E,58,23.538,33.8244
1068,2023/10/18,17:47,35-07.96N,140-33.00E,58,23.582,33.8258
1069,2023/10/18,17:48,35-08.12N,140-33.30E,57,23.659,33.8276
1070,2023/10/18,17:49,35-08.27N,140-33.60E,57,23.718,33.8397
1071,2023/10/18,17:50,35-08.43N,140-33.88E,53,23.771,33.8568
1072,2023/10/18,17:51,35-08.63N,140-34.12E,40,23.8,33.8654
1073,2023/10/18,17:52,35-08.86N,140-34.32E,35,23.818,33.8717
1074,2023/10/18,17:53,35-09.09N,140-34.51E,35,23.822,33.8754
1075,2023/10/18,17:54,35-09.31N,140-34.71E,35,23.798,33.8749
1076,2023/10/18,17:55,35-09.55N,140-34.92E,35,23.767,33.8734
1077,2023/10/18,17:56,35-09.78N,140-35.12E,35,23.775,33.8668
1078,2023/10/18,17:57,35-10.01N,140-35.32E,35,23.811,33.8609
1079,2023/10/18,17:58,35-10.25N,140-35.53E,36,23.829,33.8596
1080,2023/10/18,17:59,35-10.48N,140-35.71E,32,23.817,33.8585
1081,2023/10/18,18:00,35-10.73N,140-35.90E,32,23.85,33.8601
1082,2023/10/18,18:01,35-10.97N,140-36.09E,32,24.043,33.8542
1083,2023/10/18,18:02,35-11.20N,140-36.27E,32,24.149,33.8709
1084,2023/10/18,18:03,35-11.45N,140-36.46E,32,24.178,33.893
1085,2023/10/18,18:04,35-11.69N,140-36.64E,32,24.208,33.9167
1086,2023/10/18,18:05,35-11.93N,140-36.83E,32,24.25,33.9256
1087,2023/10/18,18:06,35-12.17N,140-37.02E,32,24.285,33.9338
1088,2023/10/18,18:07,35-12.41N,140-37.20E,32,24.314,33.935
1089,2023/10/18,18:08,35-12.66N,140-37.39E,32,24.349,33.9339
1090,2023/10/18,18:09,35-12.89N,140-37.58E,32,24.369,33.9335
1091,2023/10/18,18:10,35-13.13N,140-37.77E,32,24.394,33.936
1092,2023/10/18,18:11,35-13.38N,140-37.95E,30,24.41,33.9419
1093,2023/10/18,18:12,35-13.63N,140-38.13E,30,24.431,33.9452
1094,2023/10/18,18:13,35-13.87N,140-38.31E,30,24.442,33.9485
1095,2023/10/18,18:14,35-14.11N,140-38.48E,30,24.466,33.9518
1096,2023/10/18,18:15,35-14.35N,140-38.65E,30,24.498,33.9532
1097,2023/10/18,18:16,35-14.60N,140-38.83E,30,24.529,33.9584
1098,2023/10/18,18:17,35-14.84N,140-39.00E,30,24.551,33.9635
1099,2023/10/18,18:18,35-15.09N,140-39.18E,30,24.561,33.9695
1100,2023/10/18,18:19,35-15.34N,140-39.35E,30,24.569,34.0199
1101,2023/10/18,18:20,35-15.57N,140-39.52E,30,24.584,34.0208
1102,2023/10/18,18:21,35-15.82N,140-39.70E,30,24.598,34.0236
1103,2023/10/18,18:22,35-16.06N,140-39.87E,30,24.62,34.0212
1104,2023/10/18,18:23,35-16.31N,140-40.05E,32,24.642,34.018
1105,2023/10/18,18:24,35-16.56N,140-40.24E,33,24.671,34.014
1106,2023/10/18,18:25,35-16.79N,140-40.43E,32,24.701,34.0089
1107,2023/10/18,18:26,35-17.03N,140-40.62E,32,24.725,34.0067
1108,2023/10/18,18:27,35-17.27N,140-40.80E,32,24.745,34.0078
1109,2023/10/18,18:28,35-17.52N,140-40.99E,33,24.746,34.0058
1110,2023/10/18,18:29,35-17.75N,140-41.18E,33,24.746,34.0051
1111,2023/10/18,18:30,35-17.99N,140-41.38E,33,24.743,34.0014
1112,2023/10/18,18:31,35-18.24N,140-41.58E,33,24.736,33.9948
1113,2023/10/18,18:32,35-18.47N,140-41.77E,33,24.724,33.9934
1114,2023/10/18,18:33,35-18.71N,140-41.96E,33,24.707,33.9877
1115,2023/10/18,18:34,35-18.95N,140-42.15E,33,24.675,33.984
1116,2023/10/18,18:35,35-19.19N,140-42.35E,33,24.623,33.9793
1117,2023/10/18,18:36,35-19.44N,140-42.55E,33,24.54,33.9717
1118,2023/10/18,18:37,35-19.68N,140-42.74E,33,24.452,33.9621
1119,2023/10/18,18:38,35-19.92N,140-42.93E,33,24.306,33.951
1120,2023/10/18,18:39,35-20.16N,140-43.13E,33,24.173,33.9381
1121,2023/10/18,18:40,35-20.41N,140-43.33E,33,24.064,33.923
1122,2023/10/18,18:41,35-20.65N,140-43.52E,33,23.977,33.9089
1123,2023/10/18,18:42,35-20.89N,140-43.72E,33,23.906,33.8957
1124,2023/10/18,18:43,35-21.13N,140-43.91E,33,23.874,33.8833
1125,2023/10/18,18:44,35-21.38N,140-44.11E,34,23.861,33.8779
1126,2023/10/18,18:45,35-21.62N,140-44.31E,33,23.843,33.8678
1127,2023/10/18,18:46,35-21.86N,140-44.51E,34,23.838,33.8727
1128,2023/10/18,18:47,35-22.10N,140-44.71E,34,23.833,33.8751
1129,2023/10/18,18:48,35-22.36N,140-44.92E,34,23.811,33.8807
1130,2023/10/18,18:49,35-22.60N,140-45.12E,34,23.815,33.8881
1131,2023/10/18,18:50,35-22.83N,140-45.32E,34,23.771,33.894
1132,2023/10/18,18:51,35-23.07N,140-45.52E,34,23.67,33.8991
1133,2023/10/18,18:52,35-23.32N,140-45.73E,34,23.602,33.8761
1134,2023/10/18,18:53,35-23.55N,140-45.93E,34,23.599,33.8489
1135,2023/10/18,18:54,35-23.79N,140-46.13E,34,23.61,33.828
1136,2023/10/18,18:55,35-24.03N,140-46.34E,35,23.609,33.8261